Flag for U.S.A. Weather past 2 weeks in New Salem, North Dakota, U.S.A.

Now
27 °F

Overcast.


Feels Like: 14 °F
Forecast: 28 / 54 °F
Wind: 18 mph from South

Location: Bismarck Municipal Airport

Current Time: Mar 27, 2015 at 11:37:07 AM

Latest Report: Mar 27, 2015 at 10:52 AM


Visibility: 10 mi

Pressure: 30.11 "Hg

Humidity: 85%

Dew point: 23 °F

Location of New SalemLocation

Historic Weather in New Salem — Graph

°F

New Salem temperature yesterday

Maximum temperature yesterday: 40 °F (at 4:52 PM)
Minimum temperature yesterday: 21 °F (at 2:52 AM)
Average temperature yesterday: 30 °F

Past Weeks' High & Low Weather Summary

 TemperatureHumidityPressure
High72 °F (Mar 12, 3:52 PM)96% (Mar 18, 8:59 AM)30.65 "Hg (Mar 18, 8:59 AM)
Low18 °F (Mar 17, 7:52 AM)17% (Mar 14, 3:52 PM)29.57 "Hg (Mar 24, 1:52 PM)
Average38 °F65%30.13 "Hg
* Reported Mar 12 9:52 AM — Mar 27 9:59 AM, New Salem, Weather by CustomWeather, © 2015

Note: Actual official high and low records may vary slightly from our data, if they occured in-between our weather recording intervals... More about our weather records

Advertising

New Salem weather history for previous 24 hours

 ConditionsComfort  
Time TempWeatherWind HumidityBarometerVisibility
9:59 AM
Fri, Mar 27
26 °FLight snow. Cloudy.13 mph81%30.09 "Hg2 mi
8:59 AM25 °FLight snow. Overcast.17 mph78%30.10 "Hg2 mi
7:52 AM26 °FMostly cloudy.14 mph66%30.19 "Hg10 mi
6:52 AM26 °FOvercast.13 mph63%30.21 "Hg10 mi
5:52 AM26 °FOvercast.10 mph66%30.23 "Hg10 mi
4:52 AM26 °FOvercast.13 mph66%30.25 "Hg10 mi
3:52 AM25 °FOvercast.9 mph72%30.27 "Hg10 mi
2:52 AM25 °FPassing clouds.9 mph69%30.28 "Hg10 mi
1:52 AM25 °FPassing clouds.9 mph69%30.30 "Hg10 mi
12:52 AM25 °FClear.7 mph72%30.32 "Hg10 mi
11:52 PM
Thu, Mar 26
23 °FClear.3 mph72%30.31 "Hg10 mi
10:52 PM25 °FClear.7 mph72%30.32 "Hg10 mi
9:52 PM26 °FClear.5 mph71%30.31 "Hg10 mi
8:52 PM29 °FSunny.8 mph66%30.31 "Hg10 mi
7:52 PM33 °FPassing clouds.6 mph58%30.30 "Hg10 mi
6:52 PM38 °FOvercast.6 mph46%30.29 "Hg10 mi
5:52 PM38 °FMostly cloudy.5 mph48%30.29 "Hg10 mi
4:52 PM40 °FPartly sunny.5 mph47%30.28 "Hg10 mi
3:52 PM37 °FPartly sunny.7 mph52%30.28 "Hg10 mi
2:52 PM37 °FOvercast.7 mph54%30.30 "Hg10 mi
1:52 PM36 °FOvercast.8 mph59%30.30 "Hg10 mi
12:52 PM35 °FMostly cloudy.12 mph64%30.29 "Hg10 mi
11:52 AM34 °FMostly cloudy.10 mph67%30.29 "Hg10 mi
Weather by CustomWeather, © 2015

See weather overviewHow to use our weather pages